Wetbulb
77.37 75.28 74.42 75.11 76.11 74.66 75.31 73.19 76.53 75.91 77.07 77.99 78.35 77.14 78.58 77.83 76.59 77.49 76.39 77.05 76.71 75.16
76.09 75.64 74.56 76.26 77.22 75.39 77.17 76.99 75.49 70.97 69.55 73.39 77.66 78.46 78.06 77.22 77.26 76.60 76.60 75.72 77.40 76.47
74.96 75.77 74.75 76.45 77.90 77.45 77.42 78.71 77.46 73.53 72.37 75.38 77.17 78.37 77.61 77.18 76.88 76.21 76.56 75.94 76.51 77.61
75.25 75.56 75.25 74.50 76.00 77.52 78.28 78.75 78.02 78.12 76.71 77.32 77.01 77.50 77.49 76.82 76.06 76.47 76.71 76.99 76.69 76.09
76.25 76.31 75.35 74.42 74.45 76.08 76.56 77.35 77.09 77.03 76.87 77.29 77.23 77.59 77.20 75.80 75.10 76.22 75.38 76.01 75.31 76.58
75.44 75.53 75.39 75.64 75.81 75.78 76.52 76.23 76.38 76.66 75.71 76.63 77.03 76.54 77.07 76.28 75.98 76.03 76.19 75.54 76.01 75.24
75.64 75.53 75.38 75.97 77.53 76.24 76.62 77.01 76.69 76.37 76.61 75.75 75.79 77.14 76.91 76.44 76.08 75.79 76.08 76.20 75.59 75.09
76.65 77.32 76.99 76.99 77.22 77.60 77.62 76.65 77.42 77.15 76.77 76.69 76.10 75.16 75.60 75.59 75.72 75.74 75.50 76.44 76.13 75.79
79.45 78.11 77.38 77.85 77.83 78.36 78.05 77.69 78.06 77.23 76.47 76.25 75.97 70.62 68.82 72.88 74.87 74.86 75.07 74.42 75.77 76.20
78.82 78.59 78.80 78.87 78.64 77.82 77.45 77.81 77.06 77.05 77.01 76.25 76.31 69.75 67.08 67.98 72.97 73.98 74.79 74.93 74.93 75.46
77.86 77.40 77.92 77.94 77.83 77.97 77.95 77.23 76.49 76.07 76.68 76.31 76.43 68.89 67.54 66.75 72.12 72.72 74.02 75.01 75.67 75.02
78.30 77.52 77.42 77.09 77.28 78.50 77.88 76.94 76.09 75.82 75.92 76.02 75.89 67.46 63.99 66.12 71.27 73.11 73.62 74.34 74.44 74.57
75.84 73.68 76.18 75.89 75.62 76.49 74.67 72.90 73.72 73.72 74.46 71.60 75.36 68.68 63.55 64.26 73.46 73.27 72.54 74.11 74.46 67.12
74.87 74.63 73.68 73.44 73.29 72.60 72.20 71.65 70.87 70.13 71.78 73.22 72.93 73.39 61.09 60.06 72.01 72.54 71.89 72.02 72.50 73.73
MSLP
1013.06 1013.23 1013.38 1013.60 1013.53 1013.68 1013.70 1013.87 1013.79 1013.43 1014.07 1014.02 1013.96 1013.93 1014.03 1014.57 1014.88 1014.53 1014.71 1014.65 1014.45 1014.83
1012.97 1012.99 1012.85 1012.96 1013.27 1013.51 1013.58 1013.50 1013.65 1013.67 1013.86 1014.41 1013.99 1013.87 1014.01 1014.32 1014.63 1014.68 1014.60 1014.68 1014.53 1014.36
1012.57 1012.75 1012.83 1012.81 1012.95 1013.09 1013.33 1013.35 1013.52 1014.11 1014.15 1014.25 1014.09 1014.05 1014.33 1014.36 1014.40 1014.42 1014.40 1014.38 1014.27 1014.26
1011.92 1012.28 1012.55 1012.60 1012.75 1012.88 1013.21 1013.46 1013.61 1013.64 1013.93 1014.00 1014.00 1014.19 1014.45 1014.46 1014.29 1014.06 1014.14 1014.10 1014.29 1014.31
1011.23 1011.63 1011.98 1012.27 1012.46 1012.76 1013.01 1013.29 1013.56 1013.61 1013.69 1013.75 1013.80 1014.09 1014.18 1014.15 1013.94 1013.69 1013.98 1014.12 1014.20 1014.13
1010.72 1011.11 1011.36 1011.51 1011.79 1012.13 1012.42 1012.71 1013.02 1013.25 1013.46 1013.51 1013.48 1013.55 1013.51 1013.66 1013.51 1013.50 1013.68 1013.83 1013.94 1014.01
1010.17 1010.55 1010.83 1011.05 1011.17 1011.51 1011.80 1012.10 1012.36 1012.61 1012.76 1012.92 1013.04 1012.92 1012.88 1012.88 1012.99 1013.08 1013.06 1013.10 1013.30 1013.56
1009.49 1009.87 1010.32 1010.63 1010.72 1010.92 1011.16 1011.41 1011.69 1011.91 1012.01 1012.09 1012.22 1012.25 1012.31 1012.43 1012.51 1012.72 1012.66 1012.63 1012.78 1012.83
1009.02 1009.38 1009.80 1010.13 1010.38 1010.58 1010.69 1010.94 1011.16 1011.27 1011.48 1011.57 1011.53 1011.47 1011.61 1011.90 1012.07 1012.24 1012.38 1012.33 1012.32 1012.52
1008.89 1009.16 1009.46 1009.71 1010.00 1010.29 1010.56 1010.67 1010.75 1010.93 1011.09 1011.12 1011.27 1011.25 1011.36 1011.58 1011.79 1011.62 1011.75 1011.96 1011.95 1012.12
1008.71 1009.04 1009.39 1009.63 1009.79 1010.00 1010.23 1010.56 1010.68 1010.66 1010.69 1010.75 1010.69 1010.80 1010.90 1011.21 1011.41 1011.38 1011.20 1011.26 1011.39 1011.65
1008.72 1009.00 1009.26 1009.39 1009.52 1009.70 1010.03 1010.32 1010.51 1010.49 1010.47 1010.39 1010.23 1010.39 1010.48 1010.87 1011.16 1010.92 1010.71 1010.60 1010.72 1011.07
1008.77 1009.11 1009.32 1009.43 1009.68 1009.78 1010.13 1010.30 1010.32 1010.21 1010.22 1010.03 1009.92 1009.96 1010.12 1010.35 1010.48 1010.42 1010.26 1009.92 1010.06 1010.24
1008.85 1009.29 1009.65 1009.96 1010.19 1010.30 1010.30 1010.31 1010.38 1010.31 1010.12 1009.82 1009.63 1009.59 1009.65 1009.76 1009.99 1009.88 1009.92 1009.65 1009.49 1009.57
Wind_Speed
7 6 5 9 4 5 4 4 7 6 1 4 5 6 4 2 4 5 3 5 5 3
7 8 7 7 5 4 5 4 9 7 4 14 6 5 4 2 3 4 5 6 5 4
11 11 9 7 5 5 4 3 3 8 10 8 5 2 4 4 6 5 4 5 4 4
12 12 10 9 7 5 4 3 4 3 5 6 5 4 5 6 8 4 5 5 3 5
10 10 11 11 10 7 7 6 6 5 6 6 6 7 7 6 8 5 5 6 6 5
11 11 11 11 11 10 8 10 9 8 9 9 9 9 9 9 9 8 6 8 7 7
11 11 11 10 8 11 9 8 9 8 8 10 9 9 8 8 8 9 7 8 8 9
10 9 9 7 7 8 9 9 8 8 10 9 9 9 9 8 7 6 7 7 7 8
7 9 10 9 8 6 7 8 8 10 10 10 9 12 13 10 9 9 7 8 7 8
7 6 6 6 6 7 8 8 8 9 9 11 11 12 12 9 8 9 9 7 6 7
7 7 7 7 7 7 7 8 8 10 10 10 10 12 13 10 8 9 11 8 6 7
6 7 7 8 7 3 2 4 6 7 9 10 10 10 9 6 7 9 12 11 10 9
5 4 3 4 5 2 3 5 5 7 8 10 8 9 10 10 7 8 8 10 11 13
4 2 3 3 4 4 5 5 7 8 9 11 9 9 10 12 7 7 7 9 7 9
Wind_Direction
220 218 213 211 224 243 190 184 237 210 287 246 231 241 254 244 239 243 260 264 279 298
212 240 228 239 219 246 260 149 139 134 352 284 238 265 258 251 283 276 212 262 245 269
201 209 235 267 228 230 239 229 175 159 199 236 274 272 282 297 261 257 285 253 235 264
195 201 213 236 250 233 255 274 302 240 225 209 226 249 224 241 280 272 248 277 270 257
198 211 199 216 228 230 224 227 219 234 258 241 218 219 229 233 257 256 244 261 275 238
199 206 220 213 214 222 220 213 223 217 221 244 227 237 218 217 241 254 226 233 232 250
196 205 211 225 214 213 222 230 222 222 232 225 249 252 239 234 226 239 247 242 222 235
195 198 206 220 217 215 212 220 228 225 233 238 234 240 240 243 242 256 240 249 243 246
188 193 205 210 222 233 224 219 226 227 234 240 242 240 231 226 227 233 244 239 247 257
206 211 213 216 221 226 237 243 240 241 242 242 243 254 259 236 247 233 231 234 235 254
192 203 215 217 221 227 233 241 246 252 251 252 249 238 252 219 227 238 241 229 232 227
193 204 210 213 218 229 293 276 269 266 263 259 258 242 248 191 229 236 243 238 229 229
76 27 359 19 12 17 351 322 307 294 281 271 267 250 230 200 227 233 247 240 231 226
96 80 9 2 356 327 307 292 283 276 276 279 261 264 210 204 233 228 247 251 234 231